| time (UTC) | temp F | wind direction | speed MPH | gust MPH | rain 1hr in | rain 24hr in | rain mn in | humidity % | barometer mb |
| 20260507114044 | 44 | 0 | 0.0 | 4.0 | 0.00 | 0.00 | 0.00 | 79 | 1012.5 |
| 20260507113542 | 44 | 0 | 1.0 | 4.0 | 0.00 | 0.00 | 0.00 | 79 | 1012.6 |
| 20260507113045 | 44 | 0 | 1.0 | 4.0 | 0.00 | 0.00 | 0.00 | 79 | 1012.5 |
| 20260507112542 | 44 | 247 | 1.0 | 4.0 | 0.00 | 0.00 | 0.00 | 79 | 1012.6 |
| 20260507112042 | 44 | 0 | 1.0 | 4.0 | 0.00 | 0.00 | 0.00 | 78 | 1012.6 |
| 20260507111551 | 44 | 274 | 1.0 | 3.0 | 0.00 | 0.00 | 0.00 | 78 | 1012.7 |
| 20260507111047 | 44 | 239 | 0.0 | 3.0 | 0.00 | 0.00 | 0.00 | 78 | 1012.7 |
| 20260507110542 | 44 | 243 | 1.0 | 5.0 | 0.00 | 0.00 | 0.00 | 78 | 1012.5 |
| 20260507110053 | 44 | 0 | 1.0 | 5.0 | 0.00 | 0.00 | 0.00 | 78 | 1012.5 |
| 20260507105540 | 44 | 259 | 1.0 | 3.0 | 0.00 | 0.00 | 0.00 | 78 | 1012.4 |
| 20260507105044 | 44 | 224 | 1.0 | 5.0 | 0.00 | 0.00 | 0.00 | 78 | 1012.4 |
| 20260507104556 | 44 | 208 | 1.0 | 6.0 | 0.00 | 0.00 | 0.00 | 77 | 1012.3 |
| 20260507104047 | 44 | 224 | 1.0 | 6.0 | 0.00 | 0.00 | 0.00 | 77 | 1012.4 |
| 20260507103542 | 44 | 231 | 2.0 | 6.0 | 0.00 | 0.00 | 0.00 | 77 | 1012.5 |
| 20260507103049 | 44 | 214 | 1.0 | 6.0 | 0.00 | 0.00 | 0.00 | 77 | 1012.5 |
| 20260507102541 | 44 | 217 | 1.0 | 6.0 | 0.00 | 0.00 | 0.00 | 77 | 1012.4 |
| 20260507102046 | 45 | 205 | 0.0 | 5.0 | 0.00 | 0.00 | 0.00 | 76 | 1012.4 |
| 20260507101552 | 45 | 217 | 0.0 | 5.0 | 0.00 | 0.00 | 0.00 | 76 | 1012.5 |
| 20260507101050 | 45 | 258 | 0.0 | 4.0 | 0.00 | 0.00 | 0.00 | 76 | 1012.5 |
| 20260507100545 | 45 | 217 | 1.0 | 4.0 | 0.00 | 0.00 | 0.00 | 76 | 1012.6 |
| 20260507100054 | 45 | 204 | 1.0 | 4.0 | 0.00 | 0.00 | 0.00 | 76 | 1012.5 |
| 20260507095542 | 45 | 0 | 1.0 | 5.0 | 0.00 | 0.00 | 0.00 | 75 | 1012.6 |
| 20260507095044 | 45 | 0 | 1.0 | 5.0 | 0.00 | 0.00 | 0.00 | 75 | 1012.6 |
| 20260507094554 | 45 | 257 | 0.0 | 3.0 | 0.00 | 0.00 | 0.00 | 74 | 1012.8 |
| 20260507094045 | 45 | 235 | 0.0 | 3.0 | 0.00 | 0.00 | 0.00 | 74 | 1012.8 |
| 20260507093544 | 45 | 0 | 1.0 | 3.0 | 0.00 | 0.00 | 0.00 | 74 | 1012.8 |
| 20260507093058 | 46 | 210 | 0.0 | 4.0 | 0.00 | 0.00 | 0.00 | 73 | 1013.0 |
| 20260507092544 | 46 | 0 | 0.0 | 4.0 | 0.00 | 0.00 | 0.00 | 73 | 1012.9 |
| 20260507092045 | 46 | 230 | 0.0 | 4.0 | 0.00 | 0.00 | 0.00 | 73 | 1013.0 |
| 20260507091558 | 46 | 221 | 1.0 | 4.0 | 0.00 | 0.00 | 0.00 | 73 | 1013.0 |
| 20260507091044 | 46 | 248 | 2.0 | 6.0 | 0.00 | 0.00 | 0.00 | 72 | 1013.1 |
| 20260507090548 | 46 | 0 | 1.0 | 6.0 | 0.00 | 0.00 | 0.00 | 72 | 1013.1 |
| 20260507090050 | 46 | 269 | 1.0 | 4.0 | 0.00 | 0.00 | 0.00 | 71 | 1013.3 |
| 20260507085543 | 46 | 248 | 1.0 | 8.0 | 0.00 | 0.00 | 0.00 | 71 | 1013.2 |
| 20260507085047 | 46 | 259 | 1.0 | 8.0 | 0.00 | 0.00 | 0.00 | 70 | 1013.3 |
| 20260507084551 | 46 | 232 | 1.0 | 8.0 | 0.00 | 0.00 | 0.00 | 70 | 1013.3 |
| 20260507084045 | 46 | 253 | 1.0 | 4.0 | 0.00 | 0.00 | 0.00 | 70 | 1013.4 |
| 20260507083543 | 45 | 224 | 0.0 | 4.0 | 0.00 | 0.00 | 0.00 | 69 | 1013.5 |
| 20260507083057 | 45 | 0 | 1.0 | 4.0 | 0.00 | 0.00 | 0.00 | 69 | 1013.4 |
| 20260507082548 | 45 | 215 | 1.0 | 3.0 | 0.00 | 0.00 | 0.00 | 68 | 1013.6 |
| 20260507082045 | 45 | 236 | 0.0 | 3.0 | 0.00 | 0.00 | 0.00 | 67 | 1013.6 |
| 20260507081551 | 45 | 250 | 0.0 | 4.0 | 0.00 | 0.00 | 0.00 | 67 | 1013.7 |
| 20260507081044 | 45 | 211 | 1.0 | 4.0 | 0.00 | 0.00 | 0.00 | 66 | 1013.7 |
| 20260507080546 | 45 | 212 | 0.0 | 3.0 | 0.00 | 0.00 | 0.00 | 66 | 1013.8 |
| 20260507080053 | 45 | 249 | 0.0 | 3.0 | 0.00 | 0.00 | 0.00 | 66 | 1013.8 |
| 20260507075544 | 45 | 245 | 0.0 | 3.0 | 0.00 | 0.00 | 0.00 | 66 | 1013.8 |
| 20260507075048 | 45 | 227 | 0.0 | 3.0 | 0.00 | 0.00 | 0.00 | 65 | 1013.9 |
| 20260507074550 | 45 | 214 | 0.0 | 3.0 | 0.00 | 0.00 | 0.00 | 65 | 1013.9 |
| 20260507074043 | 45 | 214 | 0.0 | 3.0 | 0.00 | 0.00 | 0.00 | 64 | 1013.9 |
| 20260507073545 | 45 | 240 | 0.0 | 3.0 | 0.00 | 0.00 | 0.00 | 64 | 1014.0 |
| 20260507073101 | 45 | 207 | 0.0 | 2.0 | 0.00 | 0.00 | 0.00 | 64 | 1014.1 |
| 20260507072545 | 45 | 0 | 0.0 | 2.0 | 0.00 | 0.00 | 0.00 | 63 | 1014.1 |
| 20260507072048 | 45 | 212 | 0.0 | 1.0 | 0.00 | 0.00 | 0.00 | 63 | 1014.2 |
| 20260507071616 | 44 | 217 | 0.0 | 1.0 | 0.00 | 0.00 | 0.00 | 63 | 1014.2 |
| 20260507071043 | 44 | 0 | 0.0 | 1.0 | 0.00 | 0.00 | 0.00 | 62 | 1014.4 |
| 20260507070540 | 44 | 0 | 0.0 | 1.0 | 0.00 | 0.00 | 0.00 | 62 | 1014.4 |
| 20260507070100 | 44 | 0 | 0.0 | 1.0 | 0.00 | 0.00 | 0.00 | 62 | 1014.5 |
| 20260507065544 | 44 | 0 | 0.0 | 1.0 | 0.00 | 0.00 | 0.00 | 61 | 1014.6 |
| 20260507065040 | 43 | 0 | 0.0 | 1.0 | 0.00 | 0.00 | 0.00 | 61 | 1014.6 |
| 20260507064551 | 43 | 0 | 0.0 | 0.0 | 0.00 | 0.00 | 0.00 | 61 | 1014.7 |
| 20260507064044 | 43 | 0 | 0.0 | 0.0 | 0.00 | 0.00 | 0.00 | 61 | 1014.7 |
| 20260507063545 | 43 | 0 | 0.0 | 0.0 | 0.00 | 0.00 | 0.00 | 62 | 1014.8 |
| 20260507063100 | 43 | 0 | 0.0 | 0.0 | 0.00 | 0.00 | 0.00 | 62 | 1014.8 |
| 20260507062542 | 43 | 0 | 0.0 | 0.0 | 0.00 | 0.00 | 0.00 | 63 | 1015.0 |
| 20260507062042 | 43 | 0 | 0.0 | 0.0 | 0.00 | 0.00 | 0.00 | 62 | 1015.0 |
| 20260507061558 | 43 | 0 | 0.0 | 0.0 | 0.00 | 0.00 | 0.00 | 62 | 1015.1 |
| 20260507061042 | 43 | 0 | 0.0 | 0.0 | 0.00 | 0.00 | 0.00 | 62 | 1015.0 |
| 20260507060541 | 43 | 0 | 0.0 | 0.0 | 0.00 | 0.00 | 0.00 | 63 | 1015.2 |
| 20260507060058 | 42 | 0 | 0.0 | 0.0 | 0.00 | 0.00 | 0.00 | 65 | 1015.2 |
| 20260507055545 | 42 | 0 | 0.0 | 0.0 | 0.00 | 0.00 | 0.00 | 66 | 1015.1 |
| 20260507055044 | 43 | 0 | 0.0 | 0.0 | 0.00 | 0.00 | 0.00 | 68 | 1015.2 |
| 20260507054552 | 43 | 0 | 0.0 | 0.0 | 0.00 | 0.00 | 0.00 | 67 | 1015.2 |
| 20260507054043 | 43 | 0 | 0.0 | 0.0 | 0.00 | 0.00 | 0.00 | 67 | 1015.2 |
| 20260507053540 | 43 | 0 | 0.0 | 0.0 | 0.00 | 0.00 | 0.00 | 66 | 1015.2 |
| 20260507053057 | 43 | 0 | 0.0 | 0.0 | 0.00 | 0.00 | 0.00 | 63 | 1015.1 |
| 20260507052540 | 43 | 0 | 0.0 | 0.0 | 0.00 | 0.00 | 0.00 | 63 | 1015.1 |
| 20260507052042 | 43 | 0 | 0.0 | 0.0 | 0.00 | 0.00 | 0.00 | 64 | 1015.2 |
| 20260507051555 | 43 | 0 | 0.0 | 0.0 | 0.00 | 0.00 | 0.00 | 64 | 1015.3 |
| 20260507051042 | 43 | 0 | 0.0 | 0.0 | 0.00 | 0.00 | 0.00 | 64 | 1015.3 |
| 20260507050543 | 44 | 0 | 0.0 | 0.0 | 0.00 | 0.00 | 0.00 | 64 | 1015.4 |
| 20260507050056 | 44 | 0 | 0.0 | 0.0 | 0.00 | 0.00 | 0.00 | 64 | 1015.3 |
| 20260507045542 | 44 | 0 | 0.0 | 0.0 | 0.00 | 0.00 | 0.00 | 62 | 1015.3 |
| 20260507045045 | 44 | 0 | 0.0 | 0.0 | 0.00 | 0.00 | 0.00 | 63 | 1015.3 |
| 20260507044601 | 44 | 0 | 0.0 | 0.0 | 0.00 | 0.00 | 0.00 | 62 | 1015.4 |
| 20260507044043 | 44 | 0 | 0.0 | 0.0 | 0.00 | 0.00 | 0.00 | 63 | 1015.5 |
| 20260507043543 | 44 | 0 | 0.0 | 0.0 | 0.00 | 0.00 | 0.00 | 62 | 1015.5 |
| 20260507043058 | 44 | 0 | 0.0 | 0.0 | 0.00 | 0.00 | 0.00 | 62 | 1015.5 |
| 20260507042544 | 44 | 0 | 0.0 | 0.0 | 0.00 | 0.00 | 0.00 | 61 | 1015.5 |
| 20260507042044 | 45 | 0 | 0.0 | 0.0 | 0.00 | 0.00 | 0.00 | 60 | 1015.5 |
| 20260507041551 | 45 | 0 | 0.0 | 0.0 | 0.00 | 0.00 | 0.00 | 61 | 1015.6 |
| 20260507041042 | 45 | 0 | 0.0 | 0.0 | 0.00 | 0.00 | 0.00 | 59 | 1015.6 |
| 20260507040543 | 45 | 0 | 0.0 | 0.0 | 0.00 | 0.00 | 0.00 | 58 | 1015.6 |
| 20260507040048 | 46 | 0 | 0.0 | 0.0 | 0.00 | 0.00 | 0.00 | 57 | 1015.7 |
| 20260507035543 | 46 | 0 | 0.0 | 0.0 | 0.00 | 0.00 | 0.00 | 57 | 1015.6 |
| 20260507035043 | 46 | 0 | 0.0 | 0.0 | 0.00 | 0.00 | 0.00 | 55 | 1015.7 |
| 20260507034556 | 46 | 0 | 0.0 | 0.0 | 0.00 | 0.00 | 0.00 | 56 | 1015.7 |
| 20260507034044 | 46 | 0 | 0.0 | 0.0 | 0.00 | 0.00 | 0.00 | 56 | 1015.8 |
| 20260507033546 | 46 | 0 | 0.0 | 0.0 | 0.00 | 0.00 | 0.00 | 57 | 1015.9 |
| 20260507033054 | 46 | 0 | 0.0 | 0.0 | 0.00 | 0.00 | 0.00 | 54 | 1015.8 |
| 20260507032544 | 46 | 0 | 0.0 | 0.0 | 0.00 | 0.00 | 0.00 | 55 | 1015.9 |
| 20260507032041 | 46 | 0 | 0.0 | 0.0 | 0.00 | 0.00 | 0.00 | 54 | 1015.8 |
| 20260507031548 | 47 | 0 | 0.0 | 0.0 | 0.00 | 0.00 | 0.00 | 54 | 1015.8 |
| 20260507031044 | 47 | 0 | 0.0 | 0.0 | 0.00 | 0.00 | 0.00 | 51 | 1015.8 |
| 20260507030548 | 47 | 0 | 0.0 | 0.0 | 0.00 | 0.00 | 0.00 | 50 | 1015.9 |
| 20260507030101 | 47 | 0 | 0.0 | 0.0 | 0.00 | 0.00 | 0.00 | 48 | 1015.8 |
| 20260507025546 | 48 | 0 | 0.0 | 0.0 | 0.00 | 0.00 | 0.00 | 49 | 1015.8 |
| 20260507025043 | 48 | 0 | 0.0 | 0.0 | 0.00 | 0.00 | 0.00 | 50 | 1015.8 |
| 20260507024556 | 48 | 0 | 0.0 | 0.0 | 0.00 | 0.00 | 0.00 | 50 | 1015.8 |
| 20260507024041 | 48 | 0 | 0.0 | 0.0 | 0.00 | 0.00 | 0.00 | 51 | 1015.8 |
| 20260507023540 | 49 | 0 | 0.0 | 0.0 | 0.00 | 0.00 | 0.00 | 50 | 1015.7 |
| 20260507023045 | 49 | 0 | 0.0 | 0.0 | 0.00 | 0.00 | 0.00 | 47 | 1015.7 |
| 20260507022542 | 49 | 0 | 0.0 | 0.0 | 0.00 | 0.00 | 0.00 | 45 | 1015.6 |
| 20260507022043 | 50 | 0 | 0.0 | 0.0 | 0.00 | 0.00 | 0.00 | 44 | 1015.6 |
| 20260507021551 | 50 | 0 | 0.0 | 0.0 | 0.00 | 0.00 | 0.00 | 43 | 1015.6 |
| 20260507021043 | 50 | 0 | 0.0 | 0.0 | 0.00 | 0.00 | 0.00 | 43 | 1015.6 |
| 20260507020543 | 51 | 0 | 0.0 | 0.0 | 0.00 | 0.00 | 0.00 | 43 | 1015.6 |
| 20260507020051 | 51 | 0 | 0.0 | 0.0 | 0.00 | 0.00 | 0.00 | 42 | 1015.7 |
| 20260507015542 | 52 | 0 | 0.0 | 0.0 | 0.00 | 0.00 | 0.00 | 40 | 1015.6 |
| 20260507015042 | 52 | 0 | 0.0 | 0.0 | 0.00 | 0.00 | 0.00 | 42 | 1015.6 |
| 20260507014552 | 53 | 0 | 0.0 | 0.0 | 0.00 | 0.00 | 0.00 | 41 | 1015.6 |
| 20260507014042 | 53 | 0 | 0.0 | 0.0 | 0.00 | 0.00 | 0.00 | 38 | 1015.6 |
| 20260507013541 | 54 | 0 | 0.0 | 0.0 | 0.00 | 0.00 | 0.00 | 37 | 1015.5 |
| 20260507013059 | 55 | 0 | 0.0 | 0.0 | 0.00 | 0.00 | 0.00 | 35 | 1015.6 |
| 20260507012542 | 55 | 0 | 0.0 | 0.0 | 0.00 | 0.00 | 0.00 | 33 | 1015.6 |
| 20260507012043 | 56 | 0 | 0.0 | 0.0 | 0.00 | 0.00 | 0.00 | 32 | 1015.6 |
| 20260507011550 | 56 | 0 | 0.0 | 0.0 | 0.00 | 0.00 | 0.00 | 30 | 1015.5 |
| 20260507011042 | 57 | 0 | 0.0 | 0.0 | 0.00 | 0.00 | 0.00 | 29 | 1015.5 |
| 20260507010543 | 57 | 0 | 0.0 | 1.0 | 0.00 | 0.00 | 0.00 | 29 | 1015.6 |
| 20260507010047 | 58 | 0 | 0.0 | 1.0 | 0.00 | 0.00 | 0.00 | 28 | 1015.5 |
| 20260507005542 | 58 | 0 | 0.0 | 1.0 | 0.00 | 0.00 | 0.00 | 28 | 1015.6 |
| 20260507005044 | 58 | 0 | 0.0 | 3.0 | 0.00 | 0.00 | 0.00 | 27 | 1015.6 |
| 20260507004550 | 59 | 221 | 0.0 | 3.0 | 0.00 | 0.00 | 0.00 | 26 | 1015.6 |
| 20260507004042 | 59 | 248 | 0.0 | 3.0 | 0.00 | 0.00 | 0.00 | 27 | 1015.6 |
| 20260507003545 | 59 | 256 | 0.0 | 3.0 | 0.00 | 0.00 | 0.00 | 26 | 1015.6 |
| 20260507003051 | 59 | 0 | 0.0 | 1.0 | 0.00 | 0.00 | 0.00 | 26 | 1015.7 |
| 20260507002544 | 60 | 0 | 0.0 | 1.0 | 0.00 | 0.00 | 0.00 | 25 | 1015.7 |
| 20260507002042 | 61 | 0 | 0.0 | 3.0 | 0.00 | 0.00 | 0.00 | 25 | 1015.8 |
| 20260507001549 | 61 | 0 | 0.0 | 3.0 | 0.00 | 0.00 | 0.00 | 25 | 1015.7 |
| 20260507001042 | 61 | 0 | 0.0 | 4.0 | 0.00 | 0.00 | 0.00 | 26 | 1015.7 |
| 20260507000544 | 61 | 0 | 0.0 | 4.0 | 0.00 | 0.00 | 0.00 | 25 | 1015.8 |
| 20260507000054 | 61 | 237 | 0.0 | 10.0 | 0.00 | 0.00 | 0.00 | 25 | 1015.9 |
| 20260506235542 | 60 | 224 | 2.0 | 10.0 | 0.00 | 0.00 | 0.00 | 25 | 1015.9 |
| 20260506235045 | 60 | 219 | 2.0 | 6.0 | 0.00 | 0.00 | 0.00 | 25 | 1016.0 |
| 20260506234555 | 60 | 217 | 1.0 | 6.0 | 0.00 | 0.00 | 0.00 | 26 | 1016.0 |
| 20260506234043 | 61 | 233 | 1.0 | 4.0 | 0.00 | 0.00 | 0.00 | 25 | 1016.1 |
| 20260506233543 | 61 | 231 | 1.0 | 3.0 | 0.00 | 0.00 | 0.00 | 25 | 1016.0 |
| 20260506233052 | 61 | 226 | 0.0 | 3.0 | 0.00 | 0.00 | 0.00 | 25 | 1016.0 |
| 20260506232542 | 61 | 0 | 0.0 | 3.0 | 0.00 | 0.00 | 0.00 | 26 | 1016.0 |
| 20260506232044 | 61 | 0 | 1.0 | 4.0 | 0.00 | 0.00 | 0.00 | 24 | 1016.0 |
| 20260506231551 | 61 | 267 | 0.0 | 7.0 | 0.00 | 0.00 | 0.00 | 26 | 1016.1 |
| 20260506231042 | 61 | 0 | 2.0 | 7.0 | 0.00 | 0.00 | 0.00 | 26 | 1016.0 |
| 20260506230543 | 61 | 259 | 2.0 | 9.0 | 0.00 | 0.00 | 0.00 | 25 | 1016.2 |
| 20260506230056 | 61 | 310 | 2.0 | 9.0 | 0.00 | 0.00 | 0.00 | 25 | 1016.2 |
| 20260506225545 | 61 | 276 | 1.0 | 6.0 | 0.00 | 0.00 | 0.00 | 24 | 1016.3 |
| 20260506225042 | 62 | 280 | 1.0 | 4.0 | 0.00 | 0.00 | 0.00 | 24 | 1016.3 |
| 20260506224607 | 62 | 289 | 1.0 | 7.0 | 0.00 | 0.00 | 0.00 | 25 | 1016.2 |
| 20260506224042 | 61 | 0 | 0.0 | 9.0 | 0.00 | 0.00 | 0.00 | 26 | 1016.2 |
| 20260506223541 | 61 | 37 | 3.0 | 9.0 | 0.00 | 0.00 | 0.00 | 25 | 1016.3 |
| 20260506223052 | 62 | 59 | 2.0 | 9.0 | 0.00 | 0.00 | 0.00 | 25 | 1016.2 |
| 20260506222542 | 62 | 238 | 2.0 | 9.0 | 0.00 | 0.00 | 0.00 | 27 | 1016.2 |
| 20260506222043 | 61 | 0 | 3.0 | 10.0 | 0.00 | 0.00 | 0.00 | 25 | 1016.4 |
| 20260506221558 | 61 | 245 | 3.0 | 10.0 | 0.00 | 0.00 | 0.00 | 25 | 1016.5 |
| 20260506221042 | 62 | 284 | 2.0 | 8.0 | 0.00 | 0.00 | 0.00 | 24 | 1016.5 |
| 20260506220544 | 62 | 278 | 2.0 | 7.0 | 0.00 | 0.00 | 0.00 | 26 | 1016.5 |
| 20260506220052 | 61 | 271 | 2.0 | 7.0 | 0.00 | 0.00 | 0.00 | 25 | 1016.7 |
| 20260506215542 | 61 | 27 | 2.0 | 7.0 | 0.00 | 0.00 | 0.00 | 27 | 1016.6 |
| 20260506215042 | 60 | 309 | 2.0 | 10.0 | 0.00 | 0.00 | 0.00 | 26 | 1016.7 |
| 20260506214607 | 60 | 264 | 3.0 | 10.0 | 0.00 | 0.00 | 0.00 | 26 | 1016.6 |
| 20260506214042 | 61 | 290 | 3.0 | 8.0 | 0.00 | 0.00 | 0.00 | 25 | 1016.6 |
| 20260506213543 | 61 | 0 | 1.0 | 7.0 | 0.00 | 0.00 | 0.00 | 28 | 1016.7 |
| 20260506213051 | 60 | 283 | 1.0 | 9.0 | 0.00 | 0.00 | 0.00 | 28 | 1016.7 |
| 20260506212542 | 59 | 233 | 2.0 | 9.0 | 0.00 | 0.00 | 0.00 | 27 | 1016.8 |
| 20260506212042 | 59 | 287 | 2.0 | 8.0 | 0.00 | 0.00 | 0.00 | 27 | 1016.9 |
| 20260506211551 | 60 | 288 | 2.0 | 6.0 | 0.00 | 0.00 | 0.00 | 27 | 1017.0 |
| 20260506211044 | 60 | 299 | 1.0 | 8.0 | 0.00 | 0.00 | 0.00 | 28 | 1017.0 |
| 20260506210542 | 60 | 208 | 2.0 | 8.0 | 0.00 | 0.00 | 0.00 | 26 | 1017.1 |
| 20260506210055 | 60 | 241 | 1.0 | 11.0 | 0.00 | 0.00 | 0.00 | 27 | 1017.1 |
| 20260506205541 | 60 | 264 | 2.0 | 11.0 | 0.00 | 0.00 | 0.00 | 30 | 1017.2 |
| 20260506205042 | 61 | 245 | 1.0 | 8.0 | 0.00 | 0.00 | 0.00 | 30 | 1017.1 |
| 20260506204559 | 61 | 56 | 0.0 | 10.0 | 0.00 | 0.00 | 0.00 | 28 | 1017.3 |
| 20260506204041 | 61 | 276 | 4.0 | 10.0 | 0.00 | 0.00 | 0.00 | 27 | 1017.5 |
| 20260506203542 | 61 | 275 | 3.0 | 7.0 | 0.00 | 0.00 | 0.00 | 29 | 1017.5 |
| 20260506203052 | 61 | 0 | 0.0 | 6.0 | 0.00 | 0.00 | 0.00 | 29 | 1017.5 |
| 20260506202542 | 59 | 208 | 2.0 | 8.0 | 0.00 | 0.00 | 0.00 | 29 | 1017.7 |
| 20260506202040 | 59 | 246 | 1.0 | 8.0 | 0.00 | 0.00 | 0.00 | 26 | 1017.7 |
| 20260506201552 | 60 | 275 | 1.0 | 5.0 | 0.00 | 0.00 | 0.00 | 29 | 1017.8 |
| 20260506201042 | 60 | 274 | 0.0 | 6.0 | 0.00 | 0.00 | 0.00 | 30 | 1017.7 |
| 20260506200544 | 59 | 324 | 3.0 | 10.0 | 0.00 | 0.00 | 0.00 | 29 | 1017.7 |
| 20260506200051 | 58 | 0 | 2.0 | 10.0 | 0.00 | 0.00 | 0.00 | 33 | 1017.8 |
| 20260506195542 | 59 | 287 | 4.0 | 10.0 | 0.00 | 0.00 | 0.00 | 28 | 1018.0 |
| 20260506195044 | 59 | 140 | 3.0 | 9.0 | 0.00 | 0.00 | 0.00 | 27 | 1017.9 |
| 20260506194600 | 60 | 222 | 3.0 | 11.0 | 0.00 | 0.00 | 0.00 | 29 | 1018.0 |
| 20260506194049 | 59 | 287 | 4.0 | 12.0 | 0.00 | 0.00 | 0.00 | 28 | 1018.0 |
| 20260506193541 | 58 | 282 | 3.0 | 12.0 | 0.00 | 0.00 | 0.00 | 30 | 1018.0 |
| 20260506193049 | 57 | 251 | 3.0 | 9.0 | 0.00 | 0.00 | 0.00 | 30 | 1018.0 |
| 20260506192542 | 57 | 284 | 2.0 | 6.0 | 0.00 | 0.00 | 0.00 | 31 | 1018.1 |
| 20260506192042 | 57 | 347 | 2.0 | 11.0 | 0.00 | 0.00 | 0.00 | 29 | 1018.1 |
| 20260506191551 | 58 | 49 | 3.0 | 11.0 | 0.00 | 0.00 | 0.00 | 32 | 1018.0 |
| 20260506191042 | 58 | 306 | 2.0 | 11.0 | 0.00 | 0.00 | 0.00 | 30 | 1017.9 |
| 20260506190542 | 57 | 306 | 2.0 | 11.0 | 0.00 | 0.00 | 0.00 | 29 | 1017.9 |
| 20260506190052 | 58 | 295 | 3.0 | 7.0 | 0.00 | 0.00 | 0.00 | 29 | 1018.1 |
| 20260506185542 | 58 | 291 | 3.0 | 9.0 | 0.00 | 0.00 | 0.00 | 30 | 1018.1 |
| 20260506185042 | 57 | 286 | 3.0 | 9.0 | 0.00 | 0.00 | 0.00 | 31 | 1018.2 |
| 20260506184551 | 58 | 309 | 2.0 | 8.0 | 0.00 | 0.00 | 0.00 | 30 | 1018.3 |
| 20260506184042 | 58 | 347 | 1.0 | 10.0 | 0.00 | 0.00 | 0.00 | 31 | 1018.3 |
| 20260506183542 | 58 | 266 | 3.0 | 10.0 | 0.00 | 0.00 | 0.00 | 32 | 1018.5 |
| 20260506183100 | 58 | 277 | 2.0 | 8.0 | 0.00 | 0.00 | 0.00 | 30 | 1018.5 |
| 20260506182542 | 57 | 269 | 2.0 | 8.0 | 0.00 | 0.00 | 0.00 | 34 | 1018.5 |
| 20260506182044 | 57 | 200 | 1.0 | 9.0 | 0.00 | 0.00 | 0.00 | 37 | 1018.5 |
| 20260506181555 | 55 | 255 | 0.0 | 9.0 | 0.00 | 0.00 | 0.00 | 34 | 1018.5 |
| 20260506181045 | 56 | 293 | 2.0 | 8.0 | 0.00 | 0.00 | 0.00 | 32 | 1018.6 |
| 20260506180545 | 56 | 20 | 1.0 | 6.0 | 0.00 | 0.00 | 0.00 | 33 | 1018.5 |
| 20260506180055 | 56 | 266 | 2.0 | 7.0 | 0.00 | 0.00 | 0.00 | 33 | 1018.7 |
| 20260506175545 | 55 | 265 | 1.0 | 11.0 | 0.00 | 0.00 | 0.00 | 36 | 1018.8 |
| 20260506175049 | 55 | 338 | 2.0 | 11.0 | 0.00 | 0.00 | 0.00 | 33 | 1018.8 |
| 20260506174555 | 56 | 268 | 1.0 | 10.0 | 0.00 | 0.00 | 0.00 | 33 | 1018.9 |
| 20260506174042 | 56 | 274 | 2.0 | 10.0 | 0.00 | 0.00 | 0.00 | 33 | 1018.9 |
| 20260506173544 | 55 | 274 | 3.0 | 7.0 | 0.00 | 0.00 | 0.00 | 35 | 1019.1 |
| 20260506173054 | 56 | 79 | 1.0 | 6.0 | 0.00 | 0.00 | 0.00 | 33 | 1019.0 |
| 20260506172545 | 55 | 38 | 2.0 | 6.0 | 0.00 | 0.00 | 0.00 | 35 | 1019.1 |
| 20260506172045 | 55 | 58 | 0.0 | 7.0 | 0.00 | 0.00 | 0.00 | 34 | 1019.2 |
| 20260506171559 | 54 | 278 | 2.0 | 7.0 | 0.00 | 0.00 | 0.00 | 35 | 1019.3 |
| 20260506171042 | 54 | 11 | 1.0 | 6.0 | 0.00 | 0.00 | 0.00 | 37 | 1019.2 |
| 20260506170542 | 55 | 275 | 2.0 | 6.0 | 0.00 | 0.00 | 0.00 | 36 | 1019.3 |
| 20260506170059 | 54 | 278 | 0.0 | 6.0 | 0.00 | 0.00 | 0.00 | 34 | 1019.3 |
| 20260506165545 | 54 | 26 | 0.0 | 6.0 | 0.00 | 0.00 | 0.00 | 35 | 1019.4 |
| 20260506165042 | 54 | 224 | 1.0 | 10.0 | 0.00 | 0.00 | 0.00 | 36 | 1019.5 |
| 20260506164558 | 54 | 55 | 2.0 | 10.0 | 0.00 | 0.00 | 0.00 | 36 | 1019.4 |
| 20260506164044 | 54 | 291 | 2.0 | 10.0 | 0.00 | 0.00 | 0.00 | 34 | 1019.5 |
| 20260506163544 | 54 | 28 | 1.0 | 9.0 | 0.00 | 0.00 | 0.00 | 40 | 1019.4 |
| 20260506163105 | 53 | 248 | 0.0 | 9.0 | 0.00 | 0.00 | 0.00 | 36 | 1019.5 |
| 20260506162542 | 54 | 272 | 3.0 | 9.0 | 0.00 | 0.00 | 0.00 | 35 | 1019.5 |
| 20260506162047 | 54 | 37 | 0.0 | 3.0 | 0.00 | 0.00 | 0.00 | 35 | 1019.4 |
| 20260506161606 | 54 | 49 | 1.0 | 5.0 | 0.00 | 0.00 | 0.00 | 41 | 1019.3 |
| 20260506161045 | 53 | 94 | 1.0 | 6.0 | 0.00 | 0.00 | 0.00 | 36 | 1019.3 |
| 20260506160542 | 53 | 274 | 2.0 | 6.0 | 0.00 | 0.00 | 0.00 | 35 | 1019.4 |
| 20260506160053 | 53 | 263 | 1.0 | 4.0 | 0.00 | 0.00 | 0.00 | 37 | 1019.4 |
| 20260506155542 | 52 | 0 | 0.0 | 9.0 | 0.00 | 0.00 | 0.00 | 39 | 1019.4 |
| 20260506155042 | 52 | 281 | 2.0 | 9.0 | 0.00 | 0.00 | 0.00 | 35 | 1019.4 |
| 20260506154610 | 53 | 33 | 3.0 | 9.0 | 0.00 | 0.00 | 0.00 | 38 | 1019.3 |
| 20260506154045 | 53 | 267 | 1.0 | 8.0 | 0.00 | 0.00 | 0.00 | 36 | 1019.2 |
| 20260506153544 | 53 | 64 | 1.0 | 6.0 | 0.00 | 0.00 | 0.00 | 40 | 1019.2 |
| 20260506153055 | 53 | 259 | 1.0 | 6.0 | 0.00 | 0.00 | 0.00 | 37 | 1019.3 |
| 20260506152544 | 53 | 266 | 0.0 | 6.0 | 0.00 | 0.00 | 0.00 | 38 | 1019.2 |
| 20260506152116 | 52 | 0 | 1.0 | 6.0 | 0.00 | 0.00 | 0.00 | 37 | 1019.3 |
| 20260506151555 | 52 | 270 | 0.0 | 5.0 | 0.00 | 0.00 | 0.00 | 38 | 1019.3 |
| 20260506151044 | 52 | 59 | 0.0 | 6.0 | 0.00 | 0.00 | 0.00 | 40 | 1019.3 |
| 20260506150547 | 52 | 269 | 1.0 | 6.0 | 0.00 | 0.00 | 0.00 | 40 | 1019.3 |
| 20260506150100 | 51 | 265 | 1.0 | 5.0 | 0.00 | 0.00 | 0.00 | 40 | 1019.3 |
| 20260506145547 | 51 | 34 | 2.0 | 5.0 | 0.00 | 0.00 | 0.00 | 40 | 1019.4 |
| 20260506145043 | 51 | 0 | 1.0 | 5.0 | 0.00 | 0.00 | 0.00 | 40 | 1019.3 |
| 20260506144602 | 51 | 0 | 1.0 | 5.0 | 0.00 | 0.00 | 0.00 | 40 | 1019.3 |
| 20260506144045 | 51 | 278 | 1.0 | 4.0 | 0.00 | 0.00 | 0.00 | 40 | 1019.4 |
| 20260506143545 | 51 | 0 | 0.0 | 3.0 | 0.00 | 0.00 | 0.00 | 42 | 1019.3 |
| 20260506143055 | 50 | 0 | 0.0 | 3.0 | 0.00 | 0.00 | 0.00 | 43 | 1019.3 |
| 20260506142547 | 50 | 0 | 0.0 | 2.0 | 0.00 | 0.00 | 0.00 | 43 | 1019.4 |
| 20260506142046 | 49 | 65 | 0.0 | 4.0 | 0.00 | 0.00 | 0.00 | 45 | 1019.4 |
| 20260506141550 | 49 | 0 | 0.0 | 4.0 | 0.00 | 0.00 | 0.00 | 45 | 1019.3 |
| 20260506141045 | 49 | 0 | 1.0 | 3.0 | 0.00 | 0.00 | 0.00 | 46 | 1019.2 |
| 20260506140545 | 49 | 0 | 0.0 | 3.0 | 0.00 | 0.00 | 0.00 | 49 | 1019.2 |
| 20260506140058 | 48 | 256 | 0.0 | 2.0 | 0.00 | 0.00 | 0.00 | 48 | 1019.2 |
| 20260506135544 | 47 | 0 | 0.0 | 3.0 | 0.00 | 0.00 | 0.00 | 48 | 1019.1 |
| 20260506135044 | 47 | 314 | 0.0 | 3.0 | 0.00 | 0.00 | 0.00 | 51 | 1019.1 |
| 20260506134552 | 46 | 0 | 0.0 | 1.0 | 0.00 | 0.00 | 0.00 | 53 | 1019.0 |
| 20260506134044 | 46 | 56 | 0.0 | 2.0 | 0.00 | 0.00 | 0.00 | 52 | 1018.9 |
| 20260506133545 | 45 | 240 | 0.0 | 3.0 | 0.00 | 0.00 | 0.00 | 55 | 1019.0 |
| 20260506133057 | 45 | 0 | 0.0 | 4.0 | 0.00 | 0.00 | 0.00 | 55 | 1018.9 |
| 20260506132544 | 44 | 0 | 0.0 | 4.0 | 0.00 | 0.00 | 0.00 | 57 | 1018.9 |
| 20260506132045 | 44 | 267 | 1.0 | 3.0 | 0.00 | 0.00 | 0.00 | 55 | 1018.8 |
| 20260506131556 | 43 | 0 | 0.0 | 3.0 | 0.00 | 0.00 | 0.00 | 56 | 1018.8 |
| 20260506131045 | 43 | 0 | 0.0 | 3.0 | 0.00 | 0.00 | 0.00 | 56 | 1018.6 |
| 20260506130545 | 43 | 262 | 0.0 | 2.0 | 0.00 | 0.00 | 0.00 | 57 | 1018.6 |
| 20260506130059 | 43 | 0 | 0.0 | 2.0 | 0.00 | 0.00 | 0.00 | 57 | 1018.6 |
| 20260506125545 | 42 | 0 | 0.0 | 4.0 | 0.00 | 0.00 | 0.00 | 56 | 1018.6 |
| 20260506125045 | 42 | 268 | 0.0 | 4.0 | 0.00 | 0.00 | 0.00 | 57 | 1018.6 |
| 20260506124557 | 42 | 0 | 0.0 | 3.0 | 0.00 | 0.00 | 0.00 | 58 | 1018.5 |
| 20260506124045 | 42 | 0 | 0.0 | 3.0 | 0.00 | 0.00 | 0.00 | 58 | 1018.3 |
| 20260506123548 | 41 | 0 | 0.0 | 1.0 | 0.00 | 0.00 | 0.00 | 59 | 1018.3 |
| 20260506123054 | 41 | 0 | 0.0 | 0.0 | 0.00 | 0.00 | 0.00 | 60 | 1018.2 |
| 20260506122544 | 41 | 0 | 0.0 | 0.0 | 0.00 | 0.00 | 0.00 | 60 | 1018.1 |
| 20260506122045 | 41 | 0 | 0.0 | 0.0 | 0.00 | 0.00 | 0.00 | 60 | 1018.1 |
| 20260506121553 | 40 | 0 | 0.0 | 0.0 | 0.00 | 0.00 | 0.00 | 60 | 1018.0 |
| 20260506121044 | 40 | 0 | 0.0 | 0.0 | 0.00 | 0.00 | 0.00 | 60 | 1018.0 |
| 20260506120544 | 40 | 0 | 0.0 | 0.0 | 0.00 | 0.00 | 0.00 | 60 | 1017.8 |
| 20260506120052 | 40 | 0 | 0.0 | 0.0 | 0.00 | 0.00 | 0.00 | 60 | 1017.8 |
| 20260506115544 | 40 | 0 | 0.0 | 0.0 | 0.00 | 0.00 | 0.00 | 61 | 1017.7 |
| 20260506115044 | 40 | 0 | 0.0 | 0.0 | 0.00 | 0.00 | 0.00 | 60 | 1017.8 |
| 20260506114558 | 40 | 0 | 0.0 | 0.0 | 0.00 | 0.00 | 0.00 | 60 | 1017.5 |